Oakdale, LA

5:25 AM CDT on August 17, 2017 (GMT -0500)
Oakdale

Weather History for KACP - November, 2012

Change the Weather History Date:

Thursday, November 1, 2012

  Actual Average (KPOE) Record (KPOE)
Temperature  
Mean Temperature 64 °F -  
Max Temperature 82 °F 71 °F 85 °F (2016)
Min Temperature 46 °F 51 °F 38 °F (2014)
Degree Days  
Heating Degree Days 1    
Growing Degree Days 14 (Base 50)    
Moisture  
Dew Point 56 °F    
Average Humidity 77    
Maximum Humidity 100    
Minimum Humidity 35    
Precipitation  
Precipitation 0.00 in - - ()
Sea Level Pressure  
Sea Level Pressure 30.02 in    
Wind  
Wind Speed 0 mph (SSW)    
Max Wind Speed 6 mph    
Max Gust Speed -    
Visibility 7 miles    
Events Fog    
Averages and records for this station are not official NWS values.
T = Trace of Precipitation, MM = Missing Value Source: NWS Daily Summary

Daily Weather History Graph

Daily Weather History Graph

Search for Another Location

Airport or City:

Trip Planner

Search our weather history database for the weather conditions in past years. The results will help you decide how hot, cold, wet, or windy it might be!

Date:

Astronomy

Nov. 01, 2012 Rise Set
Actual Time 7:26 AM CDT 6:22 PM CDT
Civil Twilight 7:01 AM CDT 6:47 PM CDT
Nautical Twilight 6:32 AM CDT 7:15 PM CDT
Astronomical Twilight 6:04 AM CDT 7:43 PM CDT
Moon 8:28 PM CDT (11/1) 9:50 AM CDT (11/1)
Length of Visible Light 11h 45m
Length of Day
10h 56m
Waning Gibbous, 93% of the Moon is Illuminated
Nov 1
Waning Gibbous
Nov 6
Last Quarter
Nov 13
New
Nov 20
First Quarter
Nov 28
Full

Hourly Weather History & Observations

Time (CDT) Temp. Heat Index Dew Point Humidity Pressure Visibility Wind Dir Wind Speed Gust Speed Precip Events Conditions
12:15 AM - - - N/A% 30.02 in 7.0 mi Calm Calm - N/A   Clear
12:35 AM - - - N/A% 30.02 in 7.0 mi Calm Calm - N/A   Clear
1:15 AM - - - N/A% 30.01 in 7.0 mi Calm Calm - N/A   Scattered Clouds
1:35 AM - - - N/A% 30.02 in 0.5 mi Calm Calm - N/A Fog Fog
1:55 AM - - - N/A% 30.02 in 3.0 mi Calm Calm - N/A   Overcast
2:15 AM - - - N/A% 30.02 in 1.0 mi Calm Calm - N/A   Overcast
2:35 AM - - - N/A% 30.02 in 1.0 mi Calm Calm - N/A   Overcast
2:55 AM 50.0 °F - 50.0 °F 100% 30.02 in 0.5 mi Calm Calm - N/A Fog Fog
3:15 AM 50.0 °F - 50.0 °F 100% 30.02 in 0.2 mi Calm Calm - N/A Fog Fog
3:35 AM 50.0 °F - 50.0 °F 100% 30.01 in 1.0 mi Calm Calm - N/A   Overcast
4:15 AM 50.0 °F - 50.0 °F 100% 30.02 in 0.5 mi Calm Calm - N/A Fog Fog
4:35 AM 48.2 °F - 48.2 °F 100% 30.01 in 0.8 mi Calm Calm - N/A   Overcast
4:55 AM 50.0 °F - 50.0 °F 100% 30.02 in 0.8 mi Calm Calm - N/A   Overcast
5:15 AM 48.2 °F - 48.2 °F 100% 30.02 in 5.0 mi Calm Calm - N/A   Mostly Cloudy
5:35 AM 48.2 °F - 48.2 °F 100% 30.02 in 5.0 mi Calm Calm - N/A   Mostly Cloudy
5:55 AM 48.2 °F - 48.2 °F 100% 30.03 in 5.0 mi Calm Calm - N/A   Overcast
6:15 AM 46.4 °F - 46.4 °F 100% 30.03 in 5.0 mi Calm Calm - N/A   Overcast
6:35 AM 46.4 °F - 46.4 °F 100% 30.02 in 0.2 mi Calm Calm - N/A Fog Fog
6:55 AM 46.4 °F - 46.4 °F 100% 30.03 in 0.5 mi Calm Calm - N/A Fog Fog
7:35 AM 46.4 °F - 46.4 °F 100% 30.04 in 3.0 mi Calm Calm - N/A   Overcast
7:55 AM 48.2 °F - 48.2 °F 100% 30.04 in 3.0 mi Calm Calm - N/A   Overcast
8:15 AM 50.0 °F - 50.0 °F 100% 30.05 in 0.2 mi Calm Calm - N/A Fog Fog
8:35 AM 51.8 °F - 51.8 °F 100% 30.06 in 0.2 mi Calm Calm - N/A Fog Fog
8:55 AM 55.4 °F - 55.4 °F 100% 30.06 in 3.0 mi Calm Calm - N/A   Overcast
9:15 AM 59.0 °F - 59.0 °F 100% 30.07 in 7.0 mi Calm Calm - N/A   Overcast
9:35 AM 60.8 °F - 60.8 °F 100% 30.07 in 10.0 mi ENE 3.5 mph - N/A   Scattered Clouds
9:55 AM 64.4 °F - 64.4 °F 100% 30.08 in 10.0 mi Calm Calm - N/A   Clear
10:15 AM 68.0 °F - 62.6 °F 83% 30.09 in 10.0 mi Calm Calm - N/A   Scattered Clouds
10:35 AM 68.0 °F - 60.8 °F 78% 30.09 in 10.0 mi Calm Calm - N/A   Scattered Clouds
10:55 AM 71.6 °F - 60.8 °F 69% 30.09 in 10.0 mi Calm Calm - N/A   Scattered Clouds
11:15 AM 73.4 °F - 60.8 °F 65% 30.08 in 10.0 mi SE 3.5 mph - N/A   Scattered Clouds
11:35 AM 73.4 °F - 60.8 °F 65% 30.08 in 10.0 mi Calm Calm - N/A   Clear
11:55 AM 75.2 °F - 60.8 °F 61% 30.07 in 10.0 mi East 3.5 mph - N/A   Clear
12:15 PM 77.0 °F - 60.8 °F 57% 30.06 in 10.0 mi Calm Calm - N/A   Clear
12:35 PM 77.0 °F - 60.8 °F 57% 30.05 in 10.0 mi Calm Calm - N/A   Clear
12:55 PM 77.0 °F - 60.8 °F 57% 30.04 in 10.0 mi Calm Calm - N/A   Clear
1:15 PM 78.8 °F - 60.8 °F 54% 30.03 in 10.0 mi Calm Calm - N/A   Clear
1:35 PM 80.6 °F 81.5 °F 60.8 °F 51% 30.02 in 10.0 mi Calm Calm - N/A   Clear
1:55 PM 80.6 °F 80.8 °F 57.2 °F 45% 30.01 in 10.0 mi Calm Calm - N/A   Clear
2:15 PM 82.4 °F 82.0 °F 57.2 °F 42% 30.00 in 10.0 mi SW 3.5 mph - N/A   Clear
2:35 PM 80.6 °F 80.8 °F 57.2 °F 45% 29.99 in 10.0 mi Calm Calm - N/A   Clear
3:15 PM 82.4 °F 81.7 °F 55.4 °F 39% 29.98 in 10.0 mi Calm Calm - N/A   Clear
3:35 PM 82.4 °F 82.0 °F 57.2 °F 42% 29.98 in 10.0 mi SSW 4.6 mph - N/A   Clear
3:55 PM 82.4 °F 81.7 °F 55.4 °F 39% 29.98 in 10.0 mi WSW 5.8 mph - N/A   Clear
4:15 PM 82.4 °F - 51.8 °F 35% 29.98 in 10.0 mi Calm Calm - N/A   Clear
4:35 PM 82.4 °F - 51.8 °F 35% 29.97 in 10.0 mi WSW 3.5 mph - N/A   Clear
4:55 PM 82.4 °F - 51.8 °F 35% 29.97 in 10.0 mi SW 3.5 mph - N/A   Clear
5:15 PM 80.6 °F 80.5 °F 55.4 °F 42% 29.97 in 10.0 mi SW 3.5 mph - N/A   Clear
5:35 PM 78.8 °F - 59.0 °F 51% 29.97 in 10.0 mi Calm Calm - N/A   Clear
5:55 PM 75.2 °F - 62.6 °F 65% 29.97 in 10.0 mi Calm Calm - N/A   Clear
6:15 PM 69.8 °F - 64.4 °F 83% 29.97 in 10.0 mi Calm Calm - N/A   Clear
6:35 PM 68.0 °F - 68.0 °F 100% 29.98 in 10.0 mi Calm Calm - N/A   Clear
6:55 PM - - - N/A% 29.98 in 10.0 mi Calm Calm - N/A   Clear
7:15 PM - - - N/A% 29.99 in 10.0 mi Calm Calm - N/A   Clear
7:35 PM - - - N/A% 29.99 in 10.0 mi Calm Calm - N/A   Clear
7:55 PM - - - N/A% 29.99 in 10.0 mi Calm Calm - N/A   Clear
8:15 PM - - - N/A% 29.99 in 10.0 mi Calm Calm - N/A   Clear
8:35 PM 62.6 °F - 62.6 °F 100% 30.00 in 10.0 mi South 3.5 mph - N/A   Clear
8:55 PM 64.4 °F - 64.4 °F 100% 30.01 in 10.0 mi South 3.5 mph - N/A   Clear
9:15 PM 62.6 °F - 62.6 °F 100% 30.01 in 10.0 mi South 3.5 mph - N/A   Clear
9:35 PM - - - N/A% 30.01 in 10.0 mi South 3.5 mph - N/A   Clear
9:55 PM - - - N/A% 30.01 in 10.0 mi Calm Calm - N/A   Clear
10:15 PM - - - N/A% 30.01 in 7.0 mi Calm Calm - N/A   Clear
10:35 PM - - - N/A% 30.01 in 10.0 mi Calm Calm - N/A   Clear
10:55 PM - - - N/A% 30.01 in 10.0 mi SSW 3.5 mph - N/A   Clear
11:15 PM - - - N/A% 30.01 in 10.0 mi Calm Calm - N/A   Clear
11:35 PM - - - N/A% 30.01 in 10.0 mi Calm Calm - N/A   Clear
11:55 PM - - - N/A% 30.01 in 7.0 mi Calm Calm - N/A   Clear